N956ER KSAN-KCRQ

Flight info

Callsign N956ER
Flight time 0h 20m
Altitude 3000
Route +FF VFR
Aircraft C172/L-VGD/C

Departure

Time 2026-04-22 19:32
Airport San Diego International Airport (KSAN)

Arrival

Time 2026-04-22 19:52
Airport McClellan-Palomar Airport (KCRQ)
Time Latitude Longitude Altitude Speed Heading
2026-04-22 19:23 32.73322 -117.17757 24 ft 0 kts 17°
2026-04-22 19:26 32.73328 -117.17757 24 ft 3 kts 343°
2026-04-22 19:26 32.73325 -117.17786 24 ft 0 kts 173°
2026-04-22 19:27 32.73320 -117.17785 24 ft 0 kts 173°
2026-04-22 19:28 32.73302 -117.17787 23 ft 7 kts 194°
2026-04-22 19:28 32.73222 -117.17791 22 ft 16 kts 142°
2026-04-22 19:28 32.73171 -117.17732 22 ft 0 kts 108°
2026-04-22 19:28 32.73169 -117.17726 22 ft 3 kts 101°
2026-04-22 19:29 32.73158 -117.17670 23 ft 9 kts 103°
2026-04-22 19:29 32.73124 -117.17578 24 ft 12 kts 126°
2026-04-22 19:29 32.73113 -117.17550 24 ft 0 kts 216°
2026-04-22 19:30 32.73076 -117.17542 24 ft 8 kts 142°
2026-04-22 19:30 32.73014 -117.17577 23 ft 15 kts 277°
2026-04-22 19:30 32.73065 -117.17767 21 ft 46 kts 285°
2026-04-22 19:31 32.73183 -117.18230 155 ft 58 kts 291°
2026-04-22 19:31 32.73344 -117.18671 326 ft 59 kts 297°
2026-04-22 19:31 32.73682 -117.19014 437 ft 70 kts 326°
2026-04-22 19:31 32.74105 -117.19320 594 ft 71 kts 321°
2026-04-22 19:32 32.74528 -117.19659 735 ft 75 kts 320°
2026-04-22 19:32 32.74936 -117.20027 913 ft 74 kts 321°
2026-04-22 19:32 32.75359 -117.20396 1030 ft 78 kts 321°
2026-04-22 19:32 32.75777 -117.20773 1252 ft 70 kts 316°
2026-04-22 19:33 32.76142 -117.21149 1400 ft 72 kts 314°
2026-04-22 19:33 32.76482 -117.21576 1572 ft 70 kts 306°
2026-04-22 19:33 32.76833 -117.22028 1689 ft 75 kts 314°
2026-04-22 19:33 32.77222 -117.22475 1803 ft 80 kts 313°
2026-04-22 19:34 32.77601 -117.22920 2008 ft 72 kts 316°
2026-04-22 19:34 32.77996 -117.23349 2096 ft 79 kts 319°
2026-04-22 19:34 32.78386 -117.23819 2215 ft 81 kts 311°
2026-04-22 19:34 32.78773 -117.24281 2371 ft 79 kts 317°
2026-04-22 19:35 32.79297 -117.24479 2490 ft 83 kts 350°
2026-04-22 19:35 32.79864 -117.24526 2636 ft 81 kts 352°
2026-04-22 19:35 32.80232 -117.24549 2757 ft 78 kts 352°
2026-04-22 19:35 32.80951 -117.24603 2897 ft 84 kts 352°
2026-04-22 19:36 32.81550 -117.24638 2960 ft 81 kts 355°
2026-04-22 19:36 32.82088 -117.24640 2992 ft 75 kts 355°
2026-04-22 19:36 32.82619 -117.24641 2975 ft 75 kts 354°
2026-04-22 19:36 32.83136 -117.24649 2957 ft 73 kts 352°
2026-04-22 19:37 32.83646 -117.24709 2932 ft 72 kts 347°
2026-04-22 19:37 32.84155 -117.24773 2909 ft 72 kts 350°
2026-04-22 19:37 32.84658 -117.24838 2883 ft 73 kts 344°
2026-04-22 19:37 32.85171 -117.24927 2850 ft 75 kts 347°
2026-04-22 19:38 32.85690 -117.25025 2903 ft 73 kts 344°
2026-04-22 19:38 32.86198 -117.25138 2951 ft 77 kts 345°
2026-04-22 19:38 32.86727 -117.25240 3032 ft 76 kts 349°
2026-04-22 19:38 32.87260 -117.25298 3075 ft 76 kts 351°
2026-04-22 19:39 32.87777 -117.25384 3050 ft 73 kts 347°
2026-04-22 19:39 32.88282 -117.25489 3001 ft 71 kts 348°
2026-04-22 19:39 32.88789 -117.25577 2921 ft 75 kts 350°
2026-04-22 19:39 32.89318 -117.25660 2847 ft 76 kts 350°
2026-04-22 19:40 32.89858 -117.25725 2814 ft 77 kts 351°
2026-04-22 19:40 32.90384 -117.25773 2867 ft 74 kts 351°
2026-04-22 19:40 32.90894 -117.25830 2874 ft 73 kts 352°
2026-04-22 19:40 32.91410 -117.25843 2851 ft 74 kts 358°
2026-04-22 19:41 32.91925 -117.25826 2831 ft 75 kts 357°
2026-04-22 19:41 32.92459 -117.25777 2807 ft 76 kts 360°
2026-04-22 19:41 32.92976 -117.25718 2789 ft 75 kts
2026-04-22 19:41 32.93502 -117.25659 2786 ft 76 kts
2026-04-22 19:42 32.94024 -117.25560 2797 ft 77 kts
2026-04-22 19:42 32.94557 -117.25427 2764 ft 76 kts
2026-04-22 19:42 32.95073 -117.25352 2718 ft 75 kts
2026-04-22 19:42 32.95600 -117.25301 2657 ft 74 kts 356°
2026-04-22 19:43 32.96625 -117.25342 2514 ft 74 kts 353°
2026-04-22 19:43 32.97147 -117.25361 2346 ft 78 kts 353°
2026-04-22 19:43 32.97693 -117.25395 2214 ft 76 kts 351°
2026-04-22 19:44 32.98219 -117.25439 2087 ft 75 kts 347°
2026-04-22 19:44 32.98733 -117.25536 1980 ft 72 kts 345°
2026-04-22 19:44 32.99232 -117.25649 1871 ft 71 kts 346°
2026-04-22 19:44 32.99695 -117.25700 1799 ft 66 kts 348°
2026-04-22 19:45 33.00145 -117.25793 1692 ft 65 kts 337°
2026-04-22 19:45 33.00607 -117.25928 1550 ft 70 kts 345°
2026-04-22 19:45 33.01081 -117.26009 1458 ft 68 kts 347°
2026-04-22 19:45 33.01592 -117.26099 1348 ft 77 kts 346°
2026-04-22 19:46 33.02137 -117.26170 1268 ft 79 kts 350°
2026-04-22 19:46 33.02674 -117.26236 1249 ft 76 kts 346°
2026-04-22 19:46 33.03223 -117.26345 1281 ft 79 kts 342°
2026-04-22 19:46 33.03773 -117.26472 1320 ft 81 kts 343°
2026-04-22 19:47 33.04322 -117.26625 1361 ft 81 kts 339°
2026-04-22 19:47 33.04885 -117.26770 1386 ft 83 kts 344°
2026-04-22 19:47 33.05284 -117.26847 1367 ft 87 kts 345°
2026-04-22 19:47 33.06101 -117.26997 1357 ft 88 kts 345°
2026-04-22 19:48 33.06703 -117.27110 1350 ft 89 kts 347°
2026-04-22 19:48 33.07324 -117.27217 1345 ft 88 kts 343°
2026-04-22 19:48 33.07901 -117.27295 1339 ft 80 kts 341°
2026-04-22 19:48 33.08441 -117.27422 1289 ft 78 kts 351°
2026-04-22 19:49 33.08981 -117.27443 1243 ft 80 kts 351°
2026-04-22 19:49 33.09520 -117.27633 1143 ft 84 kts 328°
2026-04-22 19:49 33.10102 -117.27715 1098 ft 86 kts 355°
2026-04-22 19:49 33.10704 -117.27692 1073 ft 87 kts 357°
2026-04-22 19:50 33.11305 -117.27625 1037 ft 87 kts 20°
2026-04-22 19:50 33.11523 -117.26968 993 ft 91 kts 94°
2026-04-22 19:50 33.11506 -117.26266 878 ft 82 kts 72°
2026-04-22 19:50 33.11886 -117.25954 806 ft 57 kts 356°
2026-04-22 19:51 33.12300 -117.26025 643 ft 68 kts 337°
2026-04-22 19:51 33.12766 -117.26245 554 ft 68 kts 315°
2026-04-22 19:51 33.13010 -117.26670 456 ft 61 kts 269°
2026-04-22 19:51 33.12964 -117.27155 350 ft 56 kts 261°
2026-04-22 19:52 33.12904 -117.27517 308 ft 30 kts 261°
2026-04-22 19:52 33.12868 -117.27729 307 ft 24 kts 258°
2026-04-22 19:52 33.12837 -117.27887 307 ft 15 kts 239°
2026-04-22 19:52 33.12770 -117.27977 307 ft 13 kts 226°
2026-04-22 19:53 33.12757 -117.27994 307 ft 0 kts 231°
2026-04-22 19:53 33.12736 -117.28048 308 ft 16 kts 260°
2026-04-22 19:53 33.12722 -117.28143 310 ft 15 kts 259°
2026-04-22 19:53 33.12680 -117.28185 311 ft 9 kts 72°
2026-04-22 19:54 33.12696 -117.28149 310 ft 2 kts 73°
2026-04-22 19:54 33.12697 -117.28142 310 ft 0 kts 75°